ACA1205 CYUL-CYYT

Flight info

Callsign ACA1205
Flight time 2h 11m
Altitude 37000
Route SUXET DCT NOVUN DCT ESRAM DCT RABIK Q951 SILRO Q846 TIGOR TIGOR5
Aircraft A320/M-SDE3FGHIRWY/LB1

Departure

Time 2026-04-23 22:13
Airport Montreal / Pierre Elliott Trudeau International Airport (CYUL)

Arrival

Time 2026-04-24 00:24
Airport St. John's International Airport (CYYT)
Time Latitude Longitude Altitude Speed Heading
2026-04-23 22:04 45.45798 -73.74589 105 ft 0 kts 357°
2026-04-23 22:06 45.45791 -73.74589 105 ft 2 kts 357°
2026-04-23 22:07 45.45773 -73.74588 104 ft 2 kts
2026-04-23 22:07 45.45758 -73.74596 104 ft 2 kts 73°
2026-04-23 22:07 45.45757 -73.74601 104 ft 0 kts 76°
2026-04-23 22:09 45.45756 -73.74597 105 ft 1 kts 94°
2026-04-23 22:09 45.45754 -73.74592 105 ft 3 kts 108°
2026-04-23 22:10 45.45749 -73.74524 105 ft 7 kts 74°
2026-04-23 22:10 45.45768 -73.74468 103 ft 5 kts 64°
2026-04-23 22:10 45.45786 -73.74424 104 ft 7 kts 56°
2026-04-23 22:10 45.45835 -73.74347 103 ft 9 kts 41°
2026-04-23 22:11 45.45881 -73.74296 103 ft 8 kts 59°
2026-04-23 22:11 45.45866 -73.74238 101 ft 5 kts 128°
2026-04-23 22:11 45.45853 -73.74216 103 ft 0 kts 132°
2026-04-23 22:12 45.45849 -73.74210 103 ft 5 kts 131°
2026-04-23 22:12 45.45809 -73.74124 103 ft 10 kts 101°
2026-04-23 22:12 45.45825 -73.74067 103 ft 0 kts 47°
2026-04-23 22:13 45.45969 -73.73877 106 ft 65 kts 42°
2026-04-23 22:13 45.46465 -73.73225 111 ft 126 kts 43°
2026-04-23 22:13 45.47206 -73.72247 298 ft 154 kts 42°
2026-04-23 22:13 45.47991 -73.71179 814 ft 158 kts 45°
2026-04-23 22:14 45.48801 -73.70132 1439 ft 157 kts 40°
2026-04-23 22:14 45.49634 -73.69106 2054 ft 160 kts 38°
2026-04-23 22:14 45.50498 -73.67942 2503 ft 180 kts 39°
2026-04-23 22:14 45.51451 -73.66622 2754 ft 202 kts 39°
2026-04-23 22:15 45.52516 -73.65148 3018 ft 224 kts 40°
2026-04-23 22:15 45.53699 -73.63518 3378 ft 247 kts 40°
2026-04-23 22:15 45.54926 -73.61705 4060 ft 260 kts 51°
2026-04-23 22:15 45.55649 -73.59309 4869 ft 271 kts 78°
2026-04-23 22:16 45.55502 -73.56603 5665 ft 281 kts 109°
2026-04-23 22:16 45.54415 -73.54280 6455 ft 287 kts 139°
2026-04-23 22:16 45.52847 -73.52495 7233 ft 291 kts 142°
2026-04-23 22:16 45.51250 -73.50734 7937 ft 297 kts 141°
2026-04-23 22:17 45.49597 -73.48906 8648 ft 304 kts 141°
2026-04-23 22:17 45.47911 -73.47030 9350 ft 310 kts 140°
2026-04-23 22:17 45.46191 -73.45112 9991 ft 319 kts 141°
2026-04-23 22:17 45.44394 -73.43109 10315 ft 339 kts 141°
2026-04-23 22:18 45.42471 -73.40964 10497 ft 362 kts 141°
2026-04-23 22:18 45.40431 -73.38689 10749 ft 381 kts 141°
2026-04-23 22:18 45.38322 -73.36342 11289 ft 389 kts 141°
2026-04-23 22:18 45.36160 -73.33944 11844 ft 397 kts 141°
2026-04-23 22:19 45.33961 -73.31505 12413 ft 405 kts 141°
2026-04-23 22:19 45.31706 -73.29005 12855 ft 416 kts 141°
2026-04-23 22:19 45.29401 -73.26453 13369 ft 424 kts 141°
2026-04-23 22:19 45.27045 -73.23847 13879 ft 432 kts 141°
2026-04-23 22:20 45.24820 -73.20951 14354 ft 436 kts 128°
2026-04-23 22:20 45.23021 -73.17494 14956 ft 433 kts 115°
2026-04-23 22:20 45.21737 -73.13661 15491 ft 429 kts 102°
2026-04-23 22:20 45.20988 -73.09605 15971 ft 423 kts 89°
2026-04-23 22:21 45.20779 -73.05487 16464 ft 414 kts 77°
2026-04-23 22:21 45.21067 -73.01532 16965 ft 404 kts 65°
2026-04-23 22:21 45.21811 -72.97747 17490 ft 392 kts 54°
2026-04-23 22:21 45.22953 -72.94302 18033 ft 380 kts 45°
2026-04-23 22:22 45.24264 -72.91017 18556 ft 383 kts 45°
2026-04-23 22:22 45.25587 -72.87709 19071 ft 386 kts 45°
2026-04-23 22:22 45.26897 -72.84429 19619 ft 388 kts 45°
2026-04-23 22:22 45.28202 -72.81049 20159 ft 398 kts 49°
2026-04-23 22:23 45.29139 -72.77218 20671 ft 425 kts 63°
2026-04-23 22:23 45.29486 -72.72935 21242 ft 445 kts 73°
2026-04-23 22:23 45.29643 -72.68526 21743 ft 448 kts 73°
2026-04-23 22:23 45.29799 -72.64078 22245 ft 451 kts 72°
2026-04-23 22:24 45.29959 -72.59674 22725 ft 452 kts 72°
2026-04-23 22:24 45.30162 -72.55188 23177 ft 453 kts 71°
2026-04-23 22:24 45.30408 -72.50714 23601 ft 455 kts 70°
2026-04-23 22:24 45.30671 -72.46268 23953 ft 457 kts 70°
2026-04-23 22:25 45.30945 -72.41704 24297 ft 459 kts 70°
2026-04-23 22:25 45.31211 -72.37170 24635 ft 462 kts 70°
2026-04-23 22:25 45.31472 -72.32600 25024 ft 465 kts 69°
2026-04-23 22:25 45.31724 -72.28002 25334 ft 468 kts 70°
2026-04-23 22:26 45.31969 -72.23379 25659 ft 471 kts 70°
2026-04-23 22:26 45.32207 -72.18777 25944 ft 474 kts 70°
2026-04-23 22:26 45.32446 -72.14096 26267 ft 476 kts 70°
2026-04-23 22:26 45.32688 -72.09400 26580 ft 478 kts 70°
2026-04-23 22:27 45.32934 -72.04674 26876 ft 480 kts 70°
2026-04-23 22:27 45.33178 -71.99925 27174 ft 482 kts 70°
2026-04-23 22:27 45.33417 -71.95164 27474 ft 485 kts 70°
2026-04-23 22:27 45.33651 -71.90372 27844 ft 487 kts 70°
2026-04-23 22:28 45.33895 -71.85575 28136 ft 485 kts 69°
2026-04-23 22:28 45.34256 -71.80820 28428 ft 481 kts 66°
2026-04-23 22:28 45.34742 -71.76124 28708 ft 478 kts 64°
2026-04-23 22:28 45.35307 -71.71471 28973 ft 477 kts 63°
2026-04-23 22:29 45.35901 -71.66815 29226 ft 479 kts 63°
2026-04-23 22:29 45.36477 -71.62195 29479 ft 481 kts 64°
2026-04-23 22:29 45.37032 -71.57482 29721 ft 484 kts 64°
2026-04-23 22:29 45.37555 -71.52735 29962 ft 487 kts 65°
2026-04-23 22:30 45.38055 -71.47953 30224 ft 489 kts 65°
2026-04-23 22:30 45.38540 -71.43156 30528 ft 487 kts 66°
2026-04-23 22:30 45.39021 -71.38389 30801 ft 486 kts 66°
2026-04-23 22:30 45.39508 -71.33629 31061 ft 484 kts 66°
2026-04-23 22:31 45.39999 -71.28895 31321 ft 484 kts 66°
2026-04-23 22:31 45.40495 -71.24159 31573 ft 483 kts 66°
2026-04-23 22:31 45.40993 -71.19438 31858 ft 482 kts 67°
2026-04-23 22:31 45.41489 -71.14720 32086 ft 482 kts 68°
2026-04-23 22:32 45.41816 -71.11596 32244 ft 482 kts 68°
2026-04-23 22:32 45.42303 -71.06880 32496 ft 481 kts 68°
2026-04-23 22:32 45.42781 -71.02160 32796 ft 482 kts 70°
2026-04-23 22:32 45.43163 -70.97405 33045 ft 485 kts 73°
2026-04-23 22:33 45.43430 -70.92595 33301 ft 488 kts 75°
2026-04-23 22:33 45.43615 -70.87823 33564 ft 488 kts 77°
2026-04-23 22:33 45.43768 -70.82982 33817 ft 488 kts 77°
2026-04-23 22:33 45.43925 -70.78164 34063 ft 486 kts 77°
2026-04-23 22:34 45.44102 -70.73361 34282 ft 485 kts 77°
2026-04-23 22:34 45.44302 -70.68570 34480 ft 484 kts 77°
2026-04-23 22:34 45.44530 -70.63787 34673 ft 482 kts 75°
2026-04-23 22:34 45.44881 -70.59055 34914 ft 479 kts 73°
2026-04-23 22:35 45.45350 -70.54371 35084 ft 477 kts 72°
2026-04-23 22:35 45.45889 -70.49703 35259 ft 476 kts 71°
2026-04-23 22:35 45.46435 -70.45120 35449 ft 476 kts 72°
2026-04-23 22:35 45.46971 -70.40458 35626 ft 476 kts 73°
2026-04-23 22:36 45.47470 -70.35790 35808 ft 477 kts 74°
2026-04-23 22:36 45.47941 -70.31110 35979 ft 476 kts 75°
2026-04-23 22:36 45.48391 -70.26417 36141 ft 476 kts 75°
2026-04-23 22:36 45.48833 -70.21734 36302 ft 476 kts 75°
2026-04-23 22:37 45.49274 -70.17064 36477 ft 476 kts 75°
2026-04-23 22:37 45.49717 -70.12398 36637 ft 475 kts 75°
2026-04-23 22:37 45.50164 -70.07729 36776 ft 475 kts 76°
2026-04-23 22:37 45.50607 -70.03074 36913 ft 475 kts 76°
2026-04-23 22:38 45.51499 -69.93734 36943 ft 475 kts 76°
2026-04-23 22:38 45.52389 -69.84399 36943 ft 475 kts 76°
2026-04-23 22:39 45.53264 -69.75111 36936 ft 475 kts 76°
2026-04-23 22:39 45.54125 -69.65759 36936 ft 476 kts 76°
2026-04-23 22:40 45.54983 -69.56386 36952 ft 475 kts 76°
2026-04-23 22:41 45.56255 -69.42352 36942 ft 475 kts 76°
2026-04-23 22:41 45.57103 -69.32992 36944 ft 475 kts 76°
2026-04-23 22:42 45.57927 -69.23688 36964 ft 475 kts 77°
2026-04-23 22:42 45.58756 -69.14324 36953 ft 474 kts 77°
2026-04-23 22:43 45.59581 -69.04984 36941 ft 474 kts 77°
2026-04-23 22:43 45.60388 -68.95611 36935 ft 474 kts 77°
2026-04-23 22:44 45.61181 -68.86314 36947 ft 474 kts 77°
2026-04-23 22:44 45.61970 -68.76962 36929 ft 473 kts 78°
2026-04-23 22:45 45.62759 -68.67638 36927 ft 473 kts 78°
2026-04-23 22:45 45.63537 -68.58301 36926 ft 473 kts 78°
2026-04-23 22:46 45.64305 -68.48958 36928 ft 473 kts 78°
2026-04-23 22:46 45.65074 -68.39592 36943 ft 473 kts 78°
2026-04-23 22:47 45.65826 -68.30281 36953 ft 474 kts 78°
2026-04-23 22:47 45.66577 -68.20885 36935 ft 475 kts 78°
2026-04-23 22:48 45.67313 -68.11504 36954 ft 475 kts 79°
2026-04-23 22:48 45.68043 -68.02108 36935 ft 474 kts 79°
2026-04-23 22:49 45.68771 -67.92729 36952 ft 474 kts 79°
2026-04-23 22:49 45.69481 -67.83417 36929 ft 474 kts 79°
2026-04-23 22:50 45.70835 -67.74295 36921 ft 467 kts 70°
2026-04-23 22:50 45.72525 -67.65306 36904 ft 467 kts 70°
2026-04-23 22:51 45.74221 -67.56312 36905 ft 468 kts 70°
2026-04-23 22:51 45.75896 -67.47307 36918 ft 468 kts 71°
2026-04-23 22:52 45.77554 -67.38303 36914 ft 467 kts 71°
2026-04-23 22:52 45.79201 -67.29294 36897 ft 467 kts 71°
2026-04-23 22:53 45.80844 -67.20278 36884 ft 467 kts 71°
2026-04-23 22:53 45.82475 -67.11322 36885 ft 467 kts 71°
2026-04-23 22:54 45.84111 -67.02303 36862 ft 467 kts 71°
2026-04-23 22:54 45.85737 -66.93278 36891 ft 467 kts 72°
2026-04-23 22:55 45.87357 -66.84250 36871 ft 467 kts 72°
2026-04-23 22:55 45.88970 -66.75210 36864 ft 467 kts 72°
2026-04-23 22:56 45.90579 -66.66166 36861 ft 467 kts 72°
2026-04-23 22:56 45.92163 -66.57182 36849 ft 467 kts 73°
2026-04-23 22:57 45.93751 -66.48138 36839 ft 467 kts 72°
2026-04-23 22:57 45.95270 -66.39068 36861 ft 468 kts 75°
2026-04-23 22:58 45.96523 -66.29884 36851 ft 468 kts 77°
2026-04-23 22:58 45.97690 -66.20684 36844 ft 467 kts 77°
2026-04-23 22:59 45.98895 -66.11509 36841 ft 467 kts 77°
2026-04-23 22:59 46.00141 -66.02327 36836 ft 467 kts 76°
2026-04-23 23:00 46.01378 -65.93217 36844 ft 467 kts 77°
2026-04-23 23:00 46.02605 -65.84038 36834 ft 467 kts 77°
2026-04-23 23:01 46.03811 -65.74847 36840 ft 467 kts 77°
2026-04-23 23:01 46.05019 -65.65651 36838 ft 466 kts 77°
2026-04-23 23:02 46.06211 -65.56514 36833 ft 466 kts 77°
2026-04-23 23:02 46.07399 -65.47335 36831 ft 466 kts 77°
2026-04-23 23:03 46.08584 -65.38132 36835 ft 466 kts 78°
2026-04-23 23:03 46.09757 -65.28944 36832 ft 466 kts 78°
2026-04-23 23:04 46.10923 -65.19755 36830 ft 466 kts 78°
2026-04-23 23:04 46.12062 -65.10611 36829 ft 466 kts 78°
2026-04-23 23:05 46.13099 -65.01383 36829 ft 466 kts 79°
2026-04-23 23:05 46.14104 -64.92143 36829 ft 466 kts 79°
2026-04-23 23:06 46.15128 -64.82899 36828 ft 466 kts 79°
2026-04-23 23:06 46.16165 -64.73647 36828 ft 466 kts 79°
2026-04-23 23:07 46.17188 -64.64404 36813 ft 466 kts 79°
2026-04-23 23:07 46.18156 -64.55131 36818 ft 466 kts 81°
2026-04-23 23:08 46.18961 -64.45886 36826 ft 466 kts 82°
2026-04-23 23:08 46.19722 -64.36599 36826 ft 466 kts 82°
2026-04-23 23:09 46.20503 -64.27308 36832 ft 466 kts 82°
2026-04-23 23:09 46.21298 -64.18014 36832 ft 466 kts 82°
2026-04-23 23:10 46.22085 -64.08775 36837 ft 465 kts 82°
2026-04-23 23:10 46.22857 -63.99476 36841 ft 465 kts 82°
2026-04-23 23:11 46.23622 -63.90194 36838 ft 465 kts 82°
2026-04-23 23:11 46.24382 -63.80893 36843 ft 465 kts 82°
2026-04-23 23:12 46.25133 -63.71667 36845 ft 465 kts 82°
2026-04-23 23:12 46.25876 -63.62390 36844 ft 464 kts 82°
2026-04-23 23:13 46.26603 -63.53108 36845 ft 464 kts 82°
2026-04-23 23:13 46.27323 -63.43883 36849 ft 464 kts 82°
2026-04-23 23:14 46.28048 -63.34596 36846 ft 464 kts 82°
2026-04-23 23:14 46.28761 -63.25296 36843 ft 464 kts 83°
2026-04-23 23:15 46.29462 -63.16021 36843 ft 464 kts 83°
2026-04-23 23:15 46.30647 -63.06938 36844 ft 462 kts 75°
2026-04-23 23:16 46.32236 -62.97928 36847 ft 462 kts 75°
2026-04-23 23:16 46.33818 -62.88899 36850 ft 462 kts 75°
2026-04-23 23:17 46.35389 -62.79865 36862 ft 462 kts 75°
2026-04-23 23:17 46.36959 -62.70837 36861 ft 462 kts 76°
2026-04-23 23:18 46.38256 -62.63321 36865 ft 462 kts 75°
2026-04-23 23:18 46.40052 -62.52834 36869 ft 461 kts 76°
2026-04-23 23:19 46.41332 -62.45324 36869 ft 461 kts 76°
2026-04-23 23:19 46.42866 -62.36276 36867 ft 461 kts 76°
2026-04-23 23:20 46.44385 -62.27230 36866 ft 461 kts 76°
2026-04-23 23:20 46.45912 -62.18188 36866 ft 461 kts 76°
2026-04-23 23:21 46.47425 -62.09153 36870 ft 461 kts 76°
2026-04-23 23:21 46.48919 -62.00176 36872 ft 460 kts 76°
2026-04-23 23:22 46.50417 -61.91117 36871 ft 460 kts 77°
2026-04-23 23:22 46.51895 -61.82131 36869 ft 459 kts 77°
2026-04-23 23:23 46.53380 -61.73109 36866 ft 459 kts 77°
2026-04-23 23:23 46.54850 -61.64072 36865 ft 459 kts 77°
2026-04-23 23:24 46.56308 -61.55029 36863 ft 459 kts 77°
2026-04-23 23:24 46.57763 -61.45999 36863 ft 458 kts 77°
2026-04-23 23:25 46.59214 -61.36979 36863 ft 458 kts 77°
2026-04-23 23:25 46.60655 -61.27954 36858 ft 458 kts 78°
2026-04-23 23:26 46.62085 -61.18923 36857 ft 458 kts 77°
2026-04-23 23:26 46.63497 -61.09937 36854 ft 458 kts 77°
2026-04-23 23:27 46.64908 -61.00900 36859 ft 458 kts 78°
2026-04-23 23:27 46.66321 -60.91853 36861 ft 458 kts 78°
2026-04-23 23:28 46.67723 -60.82797 36871 ft 458 kts 78°
2026-04-23 23:28 46.69105 -60.73795 36868 ft 458 kts 78°
2026-04-23 23:29 46.70500 -60.64731 36874 ft 458 kts 78°
2026-04-23 23:29 46.71885 -60.55646 36874 ft 459 kts 78°
2026-04-23 23:30 46.73258 -60.46564 36877 ft 458 kts 78°
2026-04-23 23:30 46.74627 -60.37493 36883 ft 458 kts 78°
2026-04-23 23:31 46.75982 -60.28438 36882 ft 457 kts 78°
2026-04-23 23:31 46.77324 -60.19358 36869 ft 457 kts 79°
2026-04-23 23:32 46.78658 -60.10346 36864 ft 457 kts 78°
2026-04-23 23:32 46.79997 -60.01274 36868 ft 457 kts 79°
2026-04-23 23:33 46.81323 -59.92193 36868 ft 457 kts 79°
2026-04-23 23:33 46.82645 -59.83121 36870 ft 456 kts 79°
2026-04-23 23:34 46.83963 -59.74054 36876 ft 456 kts 79°
2026-04-23 23:34 46.85267 -59.64980 36876 ft 456 kts 79°
2026-04-23 23:35 46.86547 -59.55965 36876 ft 456 kts 79°
2026-04-23 23:35 46.87832 -59.46888 36875 ft 456 kts 79°
2026-04-23 23:36 46.89117 -59.37804 36875 ft 456 kts 79°
2026-04-23 23:36 46.90395 -59.28733 36875 ft 456 kts 79°
2026-04-23 23:37 46.91652 -59.19691 36877 ft 456 kts 79°
2026-04-23 23:37 46.92905 -59.10606 36877 ft 456 kts 79°
2026-04-23 23:38 46.94160 -59.01513 36874 ft 456 kts 79°
2026-04-23 23:38 46.95406 -58.92410 36870 ft 456 kts 80°
2026-04-23 23:39 46.96639 -58.83355 36883 ft 455 kts 80°
2026-04-23 23:39 46.97873 -58.74247 36887 ft 455 kts 80°
2026-04-23 23:40 46.99097 -58.65155 36889 ft 455 kts 80°
2026-04-23 23:40 47.00294 -58.56050 36888 ft 454 kts 81°
2026-04-23 23:41 47.01339 -58.46981 36883 ft 454 kts 82°
2026-04-23 23:41 47.02320 -58.37827 36885 ft 454 kts 82°
2026-04-23 23:42 47.03309 -58.28695 36886 ft 453 kts 82°
2026-04-23 23:42 47.04312 -58.19571 36889 ft 453 kts 82°
2026-04-23 23:43 47.05318 -58.10456 36889 ft 453 kts 82°
2026-04-23 23:43 47.06312 -58.01344 36888 ft 452 kts 82°
2026-04-23 23:44 47.07296 -57.92220 36881 ft 452 kts 82°
2026-04-23 23:44 47.08256 -57.83133 36882 ft 453 kts 83°
2026-04-23 23:45 47.09215 -57.73990 36883 ft 452 kts 83°
2026-04-23 23:45 47.10173 -57.64867 36887 ft 452 kts 83°
2026-04-23 23:46 47.11128 -57.55752 36890 ft 452 kts 83°
2026-04-23 23:46 47.12078 -57.46645 36889 ft 451 kts 83°
2026-04-23 23:47 47.13010 -57.37525 36882 ft 451 kts 83°
2026-04-23 23:47 47.13938 -57.28402 36884 ft 452 kts 83°
2026-04-23 23:48 47.14861 -57.19276 36876 ft 451 kts 83°
2026-04-23 23:48 47.15769 -57.10209 36887 ft 451 kts 83°
2026-04-23 23:49 47.17119 -56.96516 36890 ft 450 kts 83°
2026-04-23 23:49 47.18009 -56.87397 36889 ft 450 kts 83°
2026-04-23 23:50 47.18894 -56.78345 36863 ft 450 kts 83°
2026-04-23 23:50 47.19775 -56.69223 36865 ft 450 kts 84°
2026-04-23 23:51 47.20645 -56.60087 36841 ft 450 kts 84°
2026-04-23 23:51 47.21508 -56.50967 36850 ft 449 kts 84°
2026-04-23 23:52 47.22364 -56.41853 36852 ft 449 kts 84°
2026-04-23 23:52 47.23212 -56.32785 36838 ft 449 kts 84°
2026-04-23 23:53 47.24046 -56.23686 36831 ft 449 kts 84°
2026-04-23 23:53 47.24878 -56.14570 36820 ft 449 kts 84°
2026-04-23 23:54 47.25717 -56.05436 36810 ft 450 kts 84°
2026-04-23 23:54 47.26540 -55.96370 36823 ft 449 kts 84°
2026-04-23 23:55 47.27345 -55.87248 36821 ft 449 kts 84°
2026-04-23 23:55 47.28149 -55.78128 36821 ft 448 kts 84°
2026-04-23 23:56 47.28944 -55.69066 36820 ft 448 kts 84°
2026-04-23 23:56 47.29735 -55.59944 36820 ft 448 kts 85°
2026-04-23 23:57 47.30509 -55.50799 36821 ft 449 kts 85°
2026-04-23 23:57 47.31273 -55.41735 36835 ft 448 kts 85°
2026-04-23 23:58 47.32040 -55.32611 36843 ft 448 kts 85°
2026-04-23 23:58 47.32808 -55.23496 36867 ft 448 kts 85°
2026-04-23 23:59 47.33566 -55.14390 36857 ft 447 kts 85°
2026-04-23 23:59 47.34305 -55.05270 36861 ft 448 kts 85°
2026-04-24 00:00 47.35035 -54.96161 36767 ft 447 kts 85°
2026-04-24 00:00 47.35401 -54.91563 35770 ft 454 kts 85°
2026-04-24 00:00 47.35768 -54.86899 34762 ft 459 kts 85°
2026-04-24 00:01 47.36132 -54.82279 33917 ft 460 kts 85°
2026-04-24 00:01 47.36503 -54.77606 32710 ft 456 kts 85°
2026-04-24 00:01 47.36873 -54.72952 31273 ft 458 kts 85°
2026-04-24 00:01 47.37244 -54.68272 30282 ft 456 kts 85°
2026-04-24 00:02 47.37608 -54.63653 28925 ft 451 kts 85°
2026-04-24 00:02 47.37963 -54.59086 27775 ft 443 kts 85°
2026-04-24 00:02 47.38304 -54.54682 27298 ft 423 kts 85°
2026-04-24 00:02 47.38631 -54.50452 26744 ft 408 kts 86°
2026-04-24 00:03 47.38944 -54.46355 26216 ft 398 kts 86°
2026-04-24 00:03 47.39247 -54.42281 25697 ft 401 kts 86°
2026-04-24 00:03 47.39549 -54.38185 25170 ft 401 kts 86°
2026-04-24 00:03 47.39749 -54.35465 24835 ft 400 kts 86°
2026-04-24 00:04 47.40147 -54.30053 24166 ft 399 kts 86°
2026-04-24 00:04 47.40447 -54.25975 23671 ft 398 kts 86°
2026-04-24 00:04 47.40748 -54.21913 23148 ft 397 kts 86°
2026-04-24 00:04 47.40947 -54.19234 22825 ft 395 kts 86°
2026-04-24 00:05 47.41342 -54.13883 22205 ft 390 kts 86°
2026-04-24 00:05 47.41536 -54.11254 21896 ft 388 kts 86°
2026-04-24 00:05 47.41880 -54.07319 21437 ft 385 kts 84°
2026-04-24 00:05 47.42286 -54.03417 20962 ft 383 kts 83°
2026-04-24 00:06 47.42722 -53.99542 20493 ft 381 kts 82°
2026-04-24 00:06 47.43163 -53.95695 20021 ft 380 kts 82°
2026-04-24 00:06 47.43595 -53.91857 19538 ft 378 kts 82°
2026-04-24 00:06 47.44014 -53.88028 19047 ft 378 kts 82°
2026-04-24 00:07 47.44423 -53.84193 18557 ft 377 kts 83°
2026-04-24 00:07 47.44825 -53.80362 18049 ft 378 kts 83°
2026-04-24 00:07 47.45225 -53.76523 17516 ft 377 kts 83°
2026-04-24 00:07 47.45616 -53.72752 17031 ft 375 kts 82°
2026-04-24 00:08 47.46008 -53.68957 16543 ft 373 kts 82°
2026-04-24 00:08 47.46400 -53.65159 16059 ft 372 kts 82°
2026-04-24 00:08 47.46787 -53.61392 15566 ft 370 kts 82°
2026-04-24 00:08 47.47174 -53.57634 15092 ft 369 kts 82°
2026-04-24 00:09 47.47559 -53.53887 14613 ft 368 kts 82°
2026-04-24 00:09 47.47942 -53.50131 14126 ft 368 kts 82°
2026-04-24 00:09 47.48320 -53.46395 13639 ft 367 kts 82°
2026-04-24 00:09 47.48697 -53.42666 13108 ft 366 kts 82°
2026-04-24 00:10 47.49071 -53.38962 12608 ft 363 kts 82°
2026-04-24 00:10 47.49444 -53.35285 12120 ft 360 kts 82°
2026-04-24 00:10 47.49813 -53.31624 11627 ft 358 kts 82°
2026-04-24 00:10 47.50173 -53.28036 11124 ft 356 kts 82°
2026-04-24 00:11 47.50539 -53.24374 10616 ft 355 kts 82°
2026-04-24 00:11 47.50895 -53.20797 10349 ft 346 kts 82°
2026-04-24 00:11 47.51232 -53.17382 10221 ft 333 kts 82°
2026-04-24 00:11 47.51557 -53.14055 10095 ft 321 kts 82°
2026-04-24 00:12 47.51872 -53.10837 9932 ft 311 kts 82°
2026-04-24 00:12 47.52181 -53.07678 9477 ft 312 kts 82°
2026-04-24 00:12 47.52492 -53.04515 9180 ft 306 kts 82°
2026-04-24 00:12 47.52797 -53.01410 8803 ft 304 kts 82°
2026-04-24 00:13 47.53048 -52.98316 8431 ft 301 kts 85°
2026-04-24 00:13 47.53216 -52.95246 8049 ft 298 kts 86°
2026-04-24 00:13 47.53345 -52.92241 7681 ft 295 kts 86°
2026-04-24 00:13 47.53470 -52.89214 7312 ft 292 kts 86°
2026-04-24 00:14 47.53599 -52.86224 6943 ft 289 kts 86°
2026-04-24 00:14 47.53731 -52.83282 6279 ft 286 kts 86°
2026-04-24 00:14 47.53868 -52.80344 5501 ft 285 kts 85°
2026-04-24 00:14 47.54002 -52.77501 5204 ft 266 kts 85°
2026-04-24 00:15 47.54126 -52.74854 5080 ft 248 kts 85°
2026-04-24 00:15 47.54241 -52.72401 4959 ft 236 kts 84°
2026-04-24 00:15 47.54352 -52.70051 4818 ft 221 kts 84°
2026-04-24 00:15 47.54455 -52.67860 4717 ft 205 kts 84°
2026-04-24 00:16 47.54549 -52.65853 4592 ft 187 kts 84°
2026-04-24 00:16 47.54639 -52.63963 4476 ft 185 kts 83°
2026-04-24 00:16 47.54729 -52.62057 4358 ft 186 kts 83°
2026-04-24 00:16 47.54818 -52.60155 4245 ft 185 kts 83°
2026-04-24 00:17 47.54906 -52.58247 4149 ft 185 kts 84°
2026-04-24 00:17 47.54995 -52.56349 4041 ft 184 kts 84°
2026-04-24 00:17 47.55083 -52.54482 3934 ft 184 kts 84°
2026-04-24 00:17 47.55171 -52.52595 3821 ft 184 kts 84°
2026-04-24 00:18 47.55441 -52.50770 3697 ft 180 kts 60°
2026-04-24 00:18 47.56212 -52.49360 3598 ft 174 kts 33°
2026-04-24 00:18 47.57261 -52.48640 3483 ft 161 kts
2026-04-24 00:18 47.58357 -52.48600 3390 ft 157 kts 352°
2026-04-24 00:19 47.59447 -52.48720 3286 ft 156 kts 353°
2026-04-24 00:19 47.60528 -52.48829 3199 ft 156 kts 353°
2026-04-24 00:19 47.61609 -52.48935 3130 ft 155 kts 353°
2026-04-24 00:19 47.62629 -52.49344 3051 ft 152 kts 327°
2026-04-24 00:20 47.63343 -52.50467 2956 ft 152 kts 297°
2026-04-24 00:20 47.63555 -52.51988 2793 ft 154 kts 269°
2026-04-24 00:20 47.63475 -52.53569 2642 ft 154 kts 269°
2026-04-24 00:20 47.63399 -52.55130 2495 ft 152 kts 269°
2026-04-24 00:21 47.63327 -52.56623 2361 ft 139 kts 269°
2026-04-24 00:21 47.63260 -52.58056 2229 ft 140 kts 269°
2026-04-24 00:21 47.63194 -52.59494 2089 ft 139 kts 269°
2026-04-24 00:21 47.63128 -52.60910 1958 ft 137 kts 269°
2026-04-24 00:22 47.63063 -52.62314 1830 ft 136 kts 269°
2026-04-24 00:22 47.62997 -52.63713 1701 ft 136 kts 269°
2026-04-24 00:22 47.62941 -52.65110 1600 ft 136 kts 269°
2026-04-24 00:22 47.62863 -52.66507 1410 ft 137 kts 268°
2026-04-24 00:23 47.62795 -52.67913 1237 ft 137 kts 268°
2026-04-24 00:23 47.62743 -52.69329 1095 ft 139 kts 266°
2026-04-24 00:23 47.62656 -52.70746 875 ft 138 kts 268°
2026-04-24 00:23 47.62600 -52.72177 698 ft 139 kts 265°
2026-04-24 00:24 47.62539 -52.73606 509 ft 140 kts 266°
2026-04-24 00:24 47.62477 -52.74947 437 ft 111 kts 266°
2026-04-24 00:24 47.62437 -52.75809 464 ft 60 kts 266°
2026-04-24 00:24 47.62417 -52.76173 477 ft 15 kts 265°
2026-04-24 00:25 47.62403 -52.76405 474 ft 30 kts 265°
2026-04-24 00:25 47.62390 -52.76718 471 ft 31 kts 266°
2026-04-24 00:25 47.62367 -52.76988 464 ft 14 kts 268°
2026-04-24 00:25 47.62357 -52.77050 464 ft 6 kts 179°
2026-04-24 00:26 47.62330 -52.77025 465 ft 1 kts 112°
2026-04-24 00:26 47.62336 -52.77017 462 ft 3 kts 52°
2026-04-24 00:26 47.62365 -52.76928 464 ft 16 kts 76°
2026-04-24 00:26 47.62381 -52.76690 471 ft 30 kts 86°
2026-04-24 00:27 47.62395 -52.76275 471 ft 49 kts 85°
2026-04-24 00:27 47.62425 -52.75759 461 ft 52 kts 85°
2026-04-24 00:27 47.62459 -52.75154 446 ft 60 kts 83°
2026-04-24 00:27 47.62491 -52.74613 450 ft 46 kts 88°
2026-04-24 00:28 47.62500 -52.74158 439 ft 40 kts 91°
2026-04-24 00:28 47.62478 -52.73945 427 ft 14 kts 139°
2026-04-24 00:28 47.62360 -52.73928 426 ft 20 kts 179°
2026-04-24 00:28 47.62197 -52.73923 442 ft 28 kts 174°
2026-04-24 00:29 47.61952 -52.73890 436 ft 41 kts 175°
2026-04-24 00:29 47.61654 -52.73862 429 ft 45 kts 176°
2026-04-24 00:29 47.61382 -52.73834 427 ft 20 kts 177°
2026-04-24 00:29 47.61284 -52.73876 447 ft 14 kts 237°
2026-04-24 00:30 47.61276 -52.74012 449 ft 13 kts 266°
2026-04-24 00:30 47.61274 -52.74067 449 ft 1 kts 268°
2026-04-24 00:30 47.61274 -52.74074 449 ft 0 kts 268°